• In Hungary
  • List of Countries
  • For 7 days
  • Water Temperature
  • Satellite Maps
  • Weather Map
  • News
  • Weather Widgets
  • user-avatar
    Login

    Hourly Weather San Marcos de Colón

    Today, 22 February, Thursday

    Time Temperature Precipitation Wind Pressure Humidity
    00:00 +18°C° 0 mm 2 mps 682 mmHg 81%
    01:00 +18°C° 0 mm 2 mps 681 mmHg 81%
    02:00 +17°C° 0 mm 2 mps 681 mmHg 82%
    03:00 +17°C° 0 mm 2 mps 681 mmHg 82%
    04:00 +17°C° 0 mm 2 mps 681 mmHg 83%
    05:00 +17°C° 0 mm 2 mps 681 mmHg 83%
    06:00 +16°C° 0 mm 2 mps 681 mmHg 83%
    07:00 +19°C° 0 mm 3 mps 681 mmHg 72%
    08:00 +21°C° 0 mm 4 mps 682 mmHg 62%
    09:00 +23°C° 0 mm 4 mps 683 mmHg 52%
    10:00 +26°C° 0 mm 5 mps 683 mmHg 45%
    11:00 +28°C° 0 mm 5 mps 683 mmHg 39%
    12:00 +30°C° 0 mm 5 mps 683 mmHg 32%
    13:00 +30°C° 0 mm 5 mps 682 mmHg 32%
    14:00 +30°C° 0 mm 5 mps 682 mmHg 32%
    15:00 +30°C° 0 mm 5 mps 681 mmHg 32%
    16:00 +29°C° 0 mm 5 mps 681 mmHg 38%
    17:00 +27°C° 0 mm 4 mps 680 mmHg 44%
    18:00 +25°C° 0 mm 3 mps 680 mmHg 50%
    19:00 +22°C° 0 mm 3 mps 681 mmHg 56%
    20:00 +21°C° 0 mm 3 mps 681 mmHg 63%
    21:00 +20°C° 0 mm 2 mps 681 mmHg 69%
    22:00 +19°C° 0 mm 2 mps 681 mmHg 73%
    23:00 +19°C° 0 mm 2 mps 681 mmHg 77%

    Tomorrow, 23 February, Friday

    Time Temperature Precipitation Wind Pressure Humidity
    00:00 +18°C° 0 mm 2 mps 681 mmHg 81%
    01:00 +18°C° 0 mm 2 mps 681 mmHg 82%
    02:00 +17°C° 0 mm 2 mps 680 mmHg 82%
    03:00 +17°C° 0 mm 2 mps 680 mmHg 83%
    04:00 +17°C° 0 mm 2 mps 680 mmHg 83%
    05:00 +17°C° 0 mm 2 mps 680 mmHg 84%
    06:00 +17°C° 0 mm 2 mps 680 mmHg 84%
    07:00 +19°C° 0 mm 3 mps 681 mmHg 73%
    08:00 +21°C° 0 mm 3 mps 682 mmHg 62%
    09:00 +23°C° 0 mm 4 mps 683 mmHg 50%
    10:00 +26°C° 0 mm 4 mps 683 mmHg 45%
    11:00 +28°C° 0 mm 5 mps 682 mmHg 40%
    12:00 +30°C° 0 mm 5 mps 682 mmHg 34%
    13:00 +30°C° 0 mm 5 mps 681 mmHg 35%
    14:00 +30°C° 0 mm 5 mps 681 mmHg 36%
    15:00 +30°C° 0 mm 5 mps 680 mmHg 37%
    16:00 +28°C° 0 mm 4 mps 680 mmHg 44%
    17:00 +26°C° 0 mm 4 mps 680 mmHg 50%
    18:00 +24°C° 0 mm 3 mps 680 mmHg 57%
    19:00 +22°C° 0 mm 3 mps 680 mmHg 63%
    20:00 +21°C° 0 mm 3 mps 680 mmHg 69%
    21:00 +19°C° 0 mm 2 mps 681 mmHg 74%
    22:00 +19°C° 0 mm 2 mps 681 mmHg 76%
    23:00 +19°C° 0 mm 2 mps 680 mmHg 78%

    Day after tomorrow, 24 February, Saturday

    Time Temperature Precipitation Wind Pressure Humidity
    00:00 +18°C° 0 mm 2 mps 680 mmHg 80%
    01:00 +18°C° 0 mm 2 mps 680 mmHg 81%
    02:00 +17°C° 0 mm 2 mps 679 mmHg 83%
    03:00 +17°C° 0 mm 2 mps 679 mmHg 84%
    04:00 +17°C° 0 mm 2 mps 679 mmHg 85%
    05:00 +17°C° 0 mm 2 mps 679 mmHg 85%
    06:00 +16°C° 0 mm 2 mps 679 mmHg 86%
    07:00 +19°C° 0 mm 2 mps 680 mmHg 73%
    08:00 +21°C° 0 mm 3 mps 681 mmHg 61%
    09:00 +24°C° 0 mm 3 mps 682 mmHg 49%
    10:00 +26°C° 0 mm 3 mps 682 mmHg 41%
    11:00 +28°C° 0 mm 4 mps 682 mmHg 34%
    12:00 +30°C° 0 mm 4 mps 681 mmHg 27%
    13:00 +30°C° 0 mm 4 mps 681 mmHg 26%
    14:00 +32°C° 0 mm 4 mps 680 mmHg 25%
    15:00 +32°C° 0 mm 4 mps 679 mmHg 23%
    16:00 +29°C° 0 mm 3 mps 679 mmHg 29%
    17:00 +27°C° 0 mm 3 mps 679 mmHg 34%
    18:00 +25°C° 0 mm 2 mps 679 mmHg 40%
    19:00 +23°C° 0 mm 2 mps 679 mmHg 47%
    20:00 +21°C° 0 mm 2 mps 680 mmHg 55%
    21:00 +19°C° 0 mm 2 mps 680 mmHg 63%
    22:00 +19°C° 0 mm 2 mps 680 mmHg 68%
    23:00 +19°C° 0 mm 1 mps 680 mmHg 73%

    25 February, Sunday

    Time Temperature Precipitation Wind Pressure Humidity
    00:00 +18°C° 0 mm 1 mps 680 mmHg 78%
    01:00 +18°C° 0 mm 1 mps 679 mmHg 80%
    02:00 +18°C° 0 mm 1 mps 679 mmHg 82%
    03:00 +16°C° 0 mm 1 mps 678 mmHg 84%
    04:00 +16°C° 0 mm 1 mps 679 mmHg 85%
    05:00 +16°C° 0 mm 2 mps 679 mmHg 86%
    06:00 +16°C° 0 mm 2 mps 679 mmHg 86%
    07:00 +18°C° 0 mm 2 mps 680 mmHg 74%
    08:00 +21°C° 0 mm 2 mps 681 mmHg 61%
    09:00 +25°C° 0 mm 2 mps 682 mmHg 48%
    10:00 +27°C° 0 mm 2 mps 682 mmHg 42%
    11:00 +29°C° 0 mm 2 mps 682 mmHg 35%
    12:00 +31°C° 0 mm 2 mps 682 mmHg 28%
    13:00 +31°C° 0 mm 3 mps 681 mmHg 28%
    14:00 +31°C° 0 mm 3 mps 680 mmHg 27%
    15:00 +31°C° 0 mm 3 mps 679 mmHg 27%
    16:00 +29°C° 0 mm 2 mps 679 mmHg 34%
    17:00 +27°C° 0 mm 2 mps 679 mmHg 41%
    18:00 +25°C° 0 mm 2 mps 679 mmHg 48%
    19:00 +23°C° 0 mm 2 mps 680 mmHg 55%
    20:00 +22°C° 0 mm 1 mps 680 mmHg 62%
    21:00 +20°C° 0 mm 1 mps 681 mmHg 69%
    22:00 +20°C° 0 mm 1 mps 681 mmHg 71%
    23:00 +19°C° 0 mm 1 mps 680 mmHg 74%

    26 February, Monday

    Time Temperature Precipitation Wind Pressure Humidity
    00:00 +19°C° 0 mm 1 mps 680 mmHg 76%
    01:00 +18°C° 0 mm 1 mps 680 mmHg 78%
    02:00 +18°C° 0 mm 1 mps 680 mmHg 79%
    03:00 +16°C° 0 mm 1 mps 679 mmHg 81%
    04:00 +16°C° 0 mm 2 mps 680 mmHg 82%
    05:00 +16°C° 0 mm 2 mps 680 mmHg 83%
    06:00 +16°C° 0 mm 2 mps 680 mmHg 85%
    07:00 +19°C° 0 mm 2 mps 681 mmHg 72%
    08:00 +21°C° 0 mm 2 mps 682 mmHg 60%
    09:00 +25°C° 0 mm 2 mps 683 mmHg 48%
    10:00 +27°C° 0 mm 3 mps 683 mmHg 40%
    11:00 +29°C° 0 mm 3 mps 682 mmHg 33%
    12:00 +31°C° 0 mm 3 mps 682 mmHg 26%
    13:00 +32°C° 0 mm 4 mps 681 mmHg 25%
    14:00 +33°C° 0 mm 4 mps 681 mmHg 24%
    15:00 +33°C° 0 mm 4 mps 680 mmHg 22%
    16:00 +30°C° 0 mm 3 mps 680 mmHg 29%
    17:00 +28°C° 0 mm 3 mps 680 mmHg 35%
    18:00 +25°C° 0 mm 2 mps 680 mmHg 41%
    19:00 +24°C° 0 mm 2 mps 680 mmHg 50%
    20:00 +21°C° 0 mm 2 mps 680 mmHg 58%
    21:00 +20°C° 0 mm 1 mps 681 mmHg 67%
    22:00 +20°C° 0 mm 1 mps 680 mmHg 71%
    23:00 +19°C° 0 mm 1 mps 680 mmHg 75%

    27 February, Tuesday

    Time Temperature Precipitation Wind Pressure Humidity
    00:00 +18°C° 0 mm 2 mps 680 mmHg 78%
    01:00 +18°C° 0 mm 2 mps 680 mmHg 79%
    02:00 +17°C° 0 mm 2 mps 680 mmHg 81%
    03:00 +17°C° 0 mm 2 mps 679 mmHg 82%
    04:00 +17°C° 0 mm 2 mps 680 mmHg 82%
    05:00 +17°C° 0 mm 2 mps 680 mmHg 82%
    06:00 +17°C° 0 mm 2 mps 680 mmHg 82%
    07:00 +19°C° 0 mm 2 mps 681 mmHg 72%
    08:00 +21°C° 0 mm 3 mps 681 mmHg 61%
    09:00 +25°C° 0 mm 3 mps 682 mmHg 51%
    10:00 +26°C° 0 mm 4 mps 682 mmHg 45%
    11:00 +28°C° 0 mm 4 mps 682 mmHg 40%
    12:00 +30°C° 0 mm 4 mps 681 mmHg 34%
    13:00 +30°C° 0 mm 4 mps 681 mmHg 33%
    14:00 +32°C° 0 mm 4 mps 680 mmHg 32%
    15:00 +32°C° 0 mm 4 mps 679 mmHg 31%
    16:00 +29°C° 0 mm 4 mps 679 mmHg 36%
    17:00 +27°C° 0 mm 3 mps 679 mmHg 41%
    18:00 +25°C° 0 mm 3 mps 679 mmHg 46%
    19:00 +24°C° 0 mm 2 mps 680 mmHg 53%
    20:00 +21°C° 0 mm 2 mps 680 mmHg 60%
    21:00 +20°C° 0 mm 2 mps 680 mmHg 67%
    22:00 +19°C° 0 mm 2 mps 680 mmHg 71%
    23:00 +19°C° 0 mm 2 mps 680 mmHg 75%
    Show more